This demonstration page uses our WeatherBlox Daily Observations layout. Learn more.

39.01783, -85.05884

Hourly Observations for June 30, 2020

Temp ( °F °C ) Dew Point ( °F °C ) Humidity (%) Winds ( mph kmh ) Pressure ( in mb ) Visibility ( mi km ) Precip ( " mm )
12:24 am 00:24 Mostly Cloudy with Nearby Thunderstorms 79 26.1 74 23.3 85 85 SW 9 15 29.93 1013 7 11.26538 0 0
12:38 am 00:38 Cloudy with Thunderstorms 78 25.6 73 22.8 85 85 WSW 12 19 29.92 1013 7 11.26538 0 0
12:52 am 00:52 Cloudy with Thunderstorms 77 25 71 21.7 82 82 WSW 9 15 29.92 1013 8 12.87472 0 0
1:15 am 01:15 Cloudy 76 24.4 69 20.6 79 79 WSW 10 17 29.92 1013 10 16.0934 0 0
1:52 am 01:52 Cloudy 75 23.9 66 18.9 74 74 WSW 10 17 29.93 1013 10 16.0934 0 0
2:05 am 02:05 Partly Cloudy with Nearby Thunderstorms 74 23.3 66 18.9 76 76 SSW 7 11 29.94 1014 10 16.0934 0 0
2:20 am 02:20 Mostly Clear 73 22.8 66 18.9 79 79 S 7 11 29.95 1014 10 16.0934 0 0
2:52 am 02:52 Cloudy with Light Rain 72 22.2 67 19.4 84 84 SSW 5 7 29.95 1014 10 16.0934 0.001 0.001
3:52 am 03:52 Cloudy with Light Rain 71 21.7 67 19.4 87 87 SW 8 13 29.95 1014 9 14.48406 0.001 0.001
4:52 am 04:52 Cloudy 71 21.7 67 19.4 87 87 NW 3 6 29.96 1014 10 16.0934 0.02 0.508
5:52 am 05:52 Cloudy 70 21.1 67 19.4 90 90 NNW 3 6 29.92 1013 10 16.0934 0.001 0.001
6:52 am 06:52 Mostly Cloudy 70 21.1 66 18.9 87 87 NW 3 6 29.92 1013 8 12.87472 0 0
7:52 am 07:52 Mostly Cloudy 73 22.8 67 19.4 81 81 N 7 11 29.92 1013 9 14.48406 0 0
8:52 am 08:52 Mostly Cloudy 75 23.9 67 19.4 76 76 VRB 3 6 29.93 1014 9 14.48406 0 0
9:52 am 09:52 Mostly Cloudy 78 25.6 68 20 71 71 W 3 6 29.96 1014 9 14.48406 0 0
10:52 am 10:52 Mostly Cloudy 80 26.7 68 20 67 67 Calm 29.95 1014 9 14.48406 0 0
11:52 am 11:52 Mostly Cloudy 82 27.8 70 21.1 67 67 Calm 29.94 1014 9 14.48406 0 0
12:52 pm 12:52 Mostly Cloudy 84 28.9 69 20.6 61 61 Calm 29.93 1014 9 14.48406 0 0
1:52 pm 13:52 Mostly Cloudy 84 28.9 72 22.2 67 67 SW 9 15 29.93 1014 9 14.48406 0 0
2:52 pm 14:52 Mostly Cloudy with Nearby Thunderstorms 84 28.9 72 22.2 67 67 S 12 19 29.91 1013 8 12.87472 0 0
3:03 pm 15:03 Mostly Cloudy 84 28.9 72 22.2 67 67 SSW 10 17 29.89 1012 8 12.87472 0 0
3:12 pm 15:12 Cloudy with Thunderstorms 84 28.9 72 22.2 67 67 SW 8 13 29.88 1012 8 12.87472 0 0
3:52 pm 15:52 Cloudy with Thunderstorms 82 27.8 71 21.7 69 69 SW 9 15 29.89 1012 8 12.87472 0 0
4:34 pm 16:34 Cloudy with Thunderstorms 79 26.1 69 20.6 72 72 E 14 22 29.9 1012 8 12.87472 0 0
4:46 pm 16:46 Cloudy with Thunderstorms 77 25 68 20 74 74 E 9 15 29.89 1012 7 11.26538 0 0
4:52 pm 16:52 Cloudy with Thunderstorms 77 25 69 20.6 77 77 E 9 15 29.91 1013 7 11.26538 0 0
5:08 pm 17:08 Cloudy with Heavy Thunderstorms 74 23.3 68 20 82 82 N 31 50 29.92 1013 2 3.21868 0.001 0.001
5:11 pm 17:11 Cloudy with Heavy Thunderstorms 72 22.2 67 19.4 84 84 NNW 29 46 29.93 1014 1 1.60934 0.02 0.508
5:22 pm 17:22 Cloudy with Heavy Thunderstorms 71 21.7 67 19.4 87 87 ESE 3 6 29.91 1013 1.25 2.011675 0.75 19.05
5:32 pm 17:32 Cloudy with Heavy Thunderstorms 73 22.8 69 20.6 87 87 S 7 11 29.89 1012 4 6.43736 1.16 29.464
5:40 pm 17:40 Cloudy with Light Rain 74 23.3 72 22.2 94 94 S 3 6 29.89 1012 9 14.48406 1.19 30.226
5:52 pm 17:52 Cloudy 77 25 74 23.3 90 90 SSW 5 7 29.88 1012 10 16.0934 1.19 30.226
6:52 pm 18:52 Mostly Cloudy 78 25.6 69 20.6 74 74 SSW 3 6 29.87 1012 9 14.48406 0 0
7:52 pm 19:52 Cloudy 78 25.6 70 21.1 76 76 Calm 29.88 1012 8 12.87472 0 0
8:52 pm 20:52 Cloudy 77 25 70 21.1 79 79 SSE 3 6 29.88 1012 8 12.87472 0 0
9:52 pm 21:52 Mostly Cloudy 76 24.4 70 21.1 82 82 SSE 3 6 29.88 1012 9 14.48406 0 0
10:52 pm 22:52 Mostly Cloudy 73 22.8 70 21.1 90 90 SSE 3 6 29.89 1012 9 14.48406 0 0
11:52 pm 23:52 Partly Cloudy 76 24.4 69 20.6 79 79 E 3 6 29.88 1012 10 16.0934 0 0

Powered by AerisWeather